Brightest
NORAD ID: 17295
Int'l Code: 1987-003A
Perigee: 544.0 km
Apogee: 564.1 km
Inclination: 82.5 °
Period: 95.6 minutes
Semi major axis: 6925 km
Launch date: January 14, 1987
Source: Commonwealth of Independent States (former USSR) (CIS)
Two Line Element Set (TLE):
1 17295U 87003A 13168.51374674 .00001327 00000-0 87708-4 0 671
2 17295 082.5213 134.6258 0014529 101.3053 038.3928 15.06504853438342
Source:
NASA's NSSDC Master Catalog entry for COSMOS 1812